Lapse_Rate
6.5 7.0 7.6 8.1 7.8 7.6 7.5 7.9 8.0 7.6 7.0 6.6 6.7 6.9 6.9 6.6 6.8 6.3 6.0 5.9 5.9 5.6 5.2 5.0 5.3 5.2 5.4 5.3 5.3 5.7 5.7 5.6 5.5 5.6 5.7 5.4 5.1 5.4 5.4 5.4 5.4 5.3 5.5 5.4
6.7 7.2 7.8 7.6 7.6 7.8 8.0 7.9 8.4 7.5 7.5 7.2 7.0 7.2 7.1 6.9 6.9 6.8 6.4 6.0 5.9 5.5 5.7 5.4 5.5 5.4 5.4 5.3 5.3 5.6 5.9 5.6 5.4 5.5 5.4 5.3 5.1 5.2 5.3 5.4 5.4 5.4 5.5 5.4
7.2 7.6 7.6 7.6 7.9 8.1 8.7 8.5 8.3 7.8 7.3 7.4 7.2 8.0 8.1 7.6 7.2 6.8 7.0 6.2 6.2 6.1 5.9 5.6 5.6 5.5 5.4 5.5 5.4 5.5 5.9 5.9 5.5 5.5 5.6 5.4 5.3 5.1 5.0 5.1 5.2 5.4 5.5 5.4
7.1 7.6 7.5 7.9 8.2 8.4 9.0 8.4 7.9 7.8 7.9 8.7 7.5 9.1 8.5 7.9 7.8 7.8 7.2 7.1 6.8 6.8 6.1 6.4 6.2 5.6 5.4 5.7 5.6 5.7 5.8 5.8 5.7 5.6 5.6 5.6 5.4 5.2 5.3 5.2 5.3 5.3 5.4 5.5
7.6 7.6 7.8 8.1 8.4 8.3 9.0 8.0 8.1 8.0 8.3 8.1 8.5 8.6 9.1 8.4 8.2 7.6 7.5 7.3 7.2 6.6 6.4 6.5 6.3 5.8 5.5 5.8 5.8 5.7 5.8 6.0 5.9 5.6 5.4 5.5 5.5 5.6 5.5 5.3 5.5 5.2 5.4 5.5
7.3 7.3 7.7 8.1 8.2 8.2 8.2 8.5 8.5 8.6 8.8 8.4 8.5 8.4 9.4 8.8 8.1 7.4 7.4 7.5 7.2 6.5 6.4 6.4 6.3 6.0 5.8 5.9 6.0 6.0 6.0 5.9 5.9 5.8 5.6 5.6 5.7 5.7 5.5 5.4 5.4 5.2 5.3 5.4
7.5 7.8 7.9 8.0 8.3 8.2 8.3 9.3 9.6 9.6 9.6 9.4 8.6 8.4 9.2 8.6 8.0 7.6 7.4 7.4 7.2 6.8 6.2 6.5 6.2 6.2 6.1 6.2 6.1 6.1 5.9 5.8 5.7 5.8 5.8 5.7 5.7 5.8 5.6 5.5 5.4 5.4 5.3 5.4
8.3 8.7 8.5 8.6 8.8 9.5 8.7 9.5 9.6 9.4 9.9 10.0 9.2 9.4 9.2 8.2 8.3 8.0 7.8 7.5 7.3 7.1 6.7 6.5 6.3 6.1 6.2 6.3 6.2 6.1 6.0 5.9 5.8 5.7 5.7 5.9 5.9 5.8 5.6 5.5 5.4 5.3 5.4 5.4
8.6 8.7 9.0 8.5 8.9 8.9 9.3 8.9 9.6 9.7 9.6 9.7 9.6 9.5 8.7 8.3 8.2 8.2 7.7 7.5 7.4 7.2 7.0 6.7 6.4 6.4 6.5 6.4 6.4 6.3 6.2 6.1 6.0 5.9 5.9 5.9 5.9 5.9 5.7 5.6 5.6 5.3 5.3 5.5
8.5 8.7 9.2 8.8 8.9 9.0 9.1 9.4 9.4 9.6 9.7 9.5 9.7 9.4 9.3 8.6 8.2 8.4 7.9 7.7 7.7 7.5 7.2 6.9 6.6 6.5 6.6 6.5 6.4 6.3 6.4 6.3 6.3 6.2 6.2 6.1 6.1 6.0 5.9 5.8 5.9 5.7 5.5 5.5
8.4 8.6 9.3 8.8 9.0 9.6 8.8 8.9 9.0 9.6 9.6 9.9 9.8 9.8 9.5 9.1 8.5 8.5 8.3 7.7 7.8 7.5 7.2 7.0 6.7 6.5 6.5 6.5 6.5 6.4 6.4 6.3 6.3 6.2 6.2 6.1 6.0 5.9 6.0 6.1 5.9 5.8 5.8 5.8
8.8 8.9 9.4 9.5 9.6 9.2 9.5 9.6 9.6 9.6 9.5 9.6 9.3 9.7 9.2 9.3 9.2 8.7 8.6 8.4 8.1 8.0 7.7 7.2 6.9 6.9 6.8 6.8 6.8 6.7 6.6 6.5 6.4 6.3 6.2 6.1 6.1 6.0 6.0 6.1 6.0 5.9 5.9 5.9
8.6 8.7 9.5 9.5 9.3 8.8 8.9 9.3 9.6 9.6 9.6 9.7 9.8 9.7 9.2 9.0 9.5 9.4 8.6 8.6 8.3 8.1 7.9 7.6 7.4 7.4 7.2 7.1 7.0 6.9 6.8 6.6 6.5 6.4 6.3 6.3 6.2 6.1 6.0 6.0 5.8 5.7 5.7 5.8
8.7 9.1 9.2 9.6 9.7 9.3 9.4 9.5 9.5 9.6 9.6 9.6 9.6 9.6 9.4 9.3 9.3 9.2 9.0 8.6 8.4 8.1 7.9 7.7 7.6 7.4 7.3 7.3 7.2 7.0 6.9 6.8 6.7 6.6 6.5 6.4 6.2 6.0 5.8 5.9 5.9 5.8 5.7 5.6
8.4 8.9 9.0 9.0 9.1 9.4 9.2 9.3 9.5 9.6 9.6 9.6 9.6 9.6 9.5 9.4 9.4 8.9 8.7 8.7 8.4 8.3 8.1 7.9 7.8 7.7 7.4 7.2 7.1 6.9 6.7 6.8 6.7 6.5 6.2 6.0 5.8 5.7 5.6 5.6 5.6 5.7 5.5 5.5
8.4 8.2 8.6 8.7 9.0 9.2 9.4 9.4 9.3 9.5 9.5 9.5 9.6 9.5 9.3 8.9 9.1 9.0 8.9 8.9 8.6 8.3 8.2 8.2 8.0 7.7 7.6 7.4 7.2 7.2 7.1 6.9 6.5 6.4 6.4 6.0 5.6 5.5 5.6 5.5 5.5 5.6 5.7 5.6
7.9 8.5 8.6 8.7 9.3 9.1 9.2 8.9 9.1 9.5 9.2 9.4 9.5 9.1 9.2 9.0 8.9 9.0 9.0 9.0 8.8 8.6 8.6 8.4 8.1 7.9 7.8 7.6 7.4 7.3 7.0 6.7 6.7 6.7 6.3 5.8 5.7 5.7 5.5 5.3 5.3 5.4 5.6 5.4
7.4 7.8 8.5 8.3 8.9 8.8 9.0 9.4 9.0 9.4 9.3 9.4 9.5 9.2 9.1 9.1 9.3 8.9 8.8 8.8 8.8 8.6 8.5 8.4 8.2 8.0 7.8 7.7 7.4 7.2 7.1 6.8 6.6 6.4 6.3 6.0 5.7 5.5 5.6 5.6 5.4 5.4 5.5 5.4
7.1 7.2 7.9 8.3 8.6 8.6 8.7 8.7 8.4 8.8 8.9 9.2 9.1 9.2 9.1 9.0 9.0 9.1 9.0 9.0 9.1 8.8 8.4 8.1 8.2 8.1 7.9 7.7 7.5 7.2 7.0 6.9 6.8 6.6 6.3 6.0 5.9 5.8 5.6 5.6 5.6 5.5 5.4 5.5
7.4 7.1 7.4 7.9 8.1 8.6 9.0 9.3 8.1 8.2 8.5 9.2 9.1 9.1 9.3 8.8 9.0 9.3 9.0 9.2 9.1 8.7 8.5 8.3 8.0 8.2 8.2 7.9 7.7 7.3 7.1 6.9 6.7 6.6 6.5 6.4 6.1 5.7 5.7 5.7 5.6 5.8 5.8 5.7
7.2 7.1 7.3 7.6 7.8 8.0 8.9 8.0 8.1 8.3 9.1 8.9 8.7 8.5 8.5 8.8 8.8 9.0 8.9 8.9 8.8 8.7 8.5 8.5 8.2 8.1 8.1 7.9 7.6 7.2 6.8 6.7 6.6 6.5 6.4 6.3 6.1 5.9 5.8 5.9 6.0 6.1 6.1 6.2
7.6 7.8 7.9 7.9 8.0 8.4 8.1 8.1 7.8 8.3 8.5 8.8 8.7 8.7 8.7 8.7 8.7 8.8 8.9 8.8 8.6 8.6 8.6 8.5 8.3 8.1 7.9 7.8 7.5 7.0 6.7 6.5 6.3 6.2 6.1 6.0 6.0 6.1 6.3 6.3 6.3 6.2 6.0 6.0
7.0 7.4 7.5 8.7 9.0 8.1 8.0 7.7 7.7 8.0 8.5 8.6 8.6 8.6 8.5 8.5 8.6 8.7 8.8 8.6 8.6 8.6 8.6 8.5 8.3 8.1 7.9 7.7 7.3 6.9 6.6 6.3 6.1 6.1 6.0 6.2 6.2 6.1 6.1 6.3 6.5 6.5 6.3 6.1
6.5 6.6 6.8 7.3 7.5 7.5 6.8 6.9 7.2 7.4 7.6 8.0 8.2 8.3 8.2 8.3 8.4 8.5 8.7 8.6 8.6 8.5 8.4 8.4 8.3 8.2 8.4 8.0 7.3 6.8 6.6 6.4 6.3 6.2 5.9 5.7 5.6 5.3 5.2 5.4 5.6 5.8 6.0 6.0
6.7 6.0 6.4 6.5 7.0 6.7 6.8 6.5 6.8 7.1 7.4 7.7 7.9 8.0 8.2 8.3 8.4 8.5 8.5 8.6 8.7 8.6 8.3 8.0 8.1 8.2 7.8 7.4 7.1 7.0 6.8 6.4 6.0 5.4 5.1 5.1 5.4 5.3 5.3 5.4 5.4 5.5 5.4 5.0
6.8 6.8 6.8 6.9 6.8 6.2 6.8 6.8 7.0 7.1 7.3 7.4 7.8 8.0 7.9 8.1 8.3 8.4 8.3 8.4 8.3 8.3 8.1 8.2 8.3 8.0 7.6 7.4 7.1 7.0 6.4 5.8 5.3 5.1 5.2 5.3 5.5 5.4 5.4 5.4 5.4 5.3 5.1 4.9
Wind_Speed
12 10 12 8 1 6 10 11 10 3 1 6 9 11 9 12 14 15 15 14 14 12 6 12 13 13 13 13 13 14 13 11 10 8 8 7 6 6 5 7 6 7 6 7
8 14 11 0 6 10 10 10 3 5 0 5 9 13 12 15 18 17 17 15 15 12 14 10 14 15 14 14 14 14 13 13 11 8 7 6 5 6 6 8 7 8 7 7
15 5 3 5 8 8 11 5 7 4 1 7 9 13 7 14 17 18 18 16 17 15 14 12 16 16 15 15 15 15 14 14 12 10 8 6 4 4 6 6 5 7 7 9
10 10 7 8 9 8 10 4 4 2 7 4 2 4 3 5 8 16 19 19 18 17 16 16 17 17 16 15 14 15 15 14 13 12 10 9 7 4 4 5 6 3 9 8
7 9 13 14 9 5 3 4 3 4 6 7 7 5 7 3 5 8 13 19 20 17 17 16 17 17 15 14 13 14 15 15 14 14 11 9 10 7 6 4 3 5 6 5
14 4 5 7 1 6 1 7 6 5 6 5 3 4 4 4 5 2 3 12 18 17 16 16 16 15 14 13 12 13 15 15 15 14 14 11 11 7 6 7 5 6 5 7
14 16 13 10 11 6 9 12 6 4 5 3 6 3 7 5 4 6 4 11 16 16 17 15 15 14 14 15 14 13 15 15 15 15 14 13 12 11 9 7 7 5 5 6
12 13 16 14 17 11 14 13 9 4 5 6 6 2 3 4 6 2 2 9 14 16 15 15 15 14 15 15 15 14 15 15 16 15 15 12 12 9 9 9 8 6 5 5
7 10 4 5 10 10 8 10 9 10 9 8 2 3 6 3 4 3 7 11 13 15 13 13 14 15 16 15 16 15 14 14 15 16 14 14 12 13 11 10 8 8 8 6
2 5 6 4 6 7 14 6 8 9 6 8 7 4 8 4 5 5 8 11 13 14 15 12 13 13 14 15 14 14 14 14 14 14 14 13 14 14 13 11 12 11 9 8
15 7 7 7 10 5 6 11 10 8 5 6 5 4 6 3 6 8 7 10 13 14 14 14 11 12 13 13 14 14 14 14 14 14 14 14 13 14 13 13 13 12 12 11
18 8 10 14 4 3 11 8 11 9 12 7 9 7 4 3 5 8 10 8 11 12 13 12 13 13 13 13 13 14 14 14 14 13 13 14 13 13 14 14 14 13 13 12
8 9 11 13 8 9 10 12 13 14 12 4 7 4 7 5 6 8 9 11 8 10 12 12 12 12 13 13 13 13 13 14 13 12 13 13 13 13 14 14 14 13 13 13
6 13 12 13 8 7 8 11 13 14 11 9 9 10 8 8 8 10 11 11 13 12 12 12 12 12 12 12 13 12 12 12 12 13 14 14 13 14 14 13 13 13 13 14
7 13 15 15 17 14 14 15 12 16 14 14 8 10 8 8 7 5 8 13 13 13 13 12 12 12 12 12 12 12 11 11 11 12 12 12 11 12 12 13 13 12 12 12
5 10 9 17 15 17 15 17 19 16 17 9 13 10 6 5 4 6 9 11 13 13 13 13 12 13 13 13 12 11 11 11 10 11 11 10 10 10 11 11 12 12 13 13
6 9 10 18 19 13 17 15 18 16 14 14 13 11 6 7 6 8 10 11 13 13 12 12 12 11 10 11 11 11 11 10 10 9 8 9 9 9 10 10 10 12 13 13
10 8 9 12 15 18 15 13 14 18 19 18 15 8 5 8 6 10 10 11 11 9 10 9 9 9 9 10 10 9 10 10 9 8 8 8 8 8 8 9 10 11 11 12
14 12 11 12 14 17 16 7 9 14 19 18 17 13 11 8 6 11 11 9 10 8 6 8 9 10 10 10 10 10 10 10 9 8 6 5 4 5 6 8 9 9 9 10
14 14 12 13 16 20 15 5 1 5 10 13 15 16 10 7 9 7 5 5 5 6 9 11 11 11 10 9 10 9 9 8 7 5 3 3 3 4 6 8 7 6 7 8
12 13 17 15 17 16 12 2 2 11 2 10 10 8 8 8 5 6 7 7 8 9 11 12 11 10 10 9 9 8 7 5 5 3 0 2 2 4 7 9 9 7 8 9
16 12 12 13 18 22 6 4 9 7 8 10 11 12 10 6 3 6 9 11 12 12 13 12 11 11 10 9 8 7 6 4 4 2 1 2 3 4 4 7 8 9 9 10
14 14 9 9 4 7 5 5 6 8 10 10 12 12 11 7 7 8 10 11 12 13 11 11 12 11 9 7 6 8 6 5 4 2 3 4 4 4 4 5 6 6 7 6
7 4 8 10 13 3 3 9 9 9 11 11 12 13 10 10 9 9 10 10 11 11 11 11 12 10 9 7 7 8 7 6 5 5 5 4 4 5 5 4 4 4 4 4
7 5 7 11 13 10 10 11 13 12 13 12 12 11 10 10 9 10 9 10 10 10 10 10 10 9 9 8 8 8 7 7 6 6 5 5 5 5 4 4 5 4 2 3
12 15 12 11 5 4 16 15 16 15 14 12 12 13 6 6 8 10 10 9 10 11 10 9 8 9 9 9 9 9 8 6 6 6 4 3 4 4 3 3 3 4 2 4
Wind_Direction
204 226 225 261 303 306 307 310 309 5 23 251 254 262 242 200 213 211 215 217 212 210 195 191 194 189 183 185 186 187 191 169 183 189 195 193 199 213 211 215 217 216 229 213
194 232 251 307 281 279 284 299 352 120 87 234 276 271 252 226 215 220 212 219 220 193 193 197 189 190 191 188 190 191 192 179 189 193 199 206 211 186 211 224 205 227 228 206
239 84 319 233 263 277 265 287 360 342 283 233 282 258 240 227 223 217 225 220 220 214 193 187 195 193 195 187 192 190 191 183 190 197 191 184 184 227 220 222 207 223 210 190
245 239 221 250 266 283 284 26 287 279 279 349 321 323 155 186 212 223 218 222 219 206 219 195 190 193 194 191 189 189 189 187 187 193 200 205 208 195 212 217 221 256 201 192
214 216 229 243 267 305 13 303 291 309 280 315 141 262 110 197 216 199 214 216 215 208 207 193 187 188 190 184 187 187 188 189 190 191 221 200 221 194 178 233 220 251 192 216
262 141 253 241 299 256 260 237 232 223 249 173 86 334 278 41 352 309 208 204 195 201 194 189 183 179 183 180 184 184 187 193 196 195 202 212 206 216 211 200 212 226 218 202
210 224 227 237 245 204 227 248 249 249 217 89 120 308 322 339 344 326 237 179 180 191 180 180 178 182 179 182 185 184 186 193 194 194 198 204 209 206 213 230 223 247 231 226
206 203 209 200 231 243 209 267 292 282 287 356 138 255 359 313 304 19 138 166 170 178 175 180 178 184 184 185 187 190 186 195 194 198 204 200 213 216 216 213 240 237 247 240
206 242 257 223 232 243 193 235 290 294 232 255 74 20 128 94 123 108 117 155 164 171 180 186 176 179 186 187 189 191 189 197 199 200 202 204 206 226 221 228 218 230 245 256
176 263 202 106 198 219 256 332 221 216 269 261 132 264 57 137 142 126 149 156 165 172 182 191 185 185 185 185 187 195 193 195 200 205 203 207 211 215 224 225 227 241 246 246
234 246 153 172 207 219 175 224 236 300 304 300 225 130 40 77 160 156 151 162 163 171 181 183 195 186 182 185 186 192 196 195 200 204 207 211 213 216 222 229 228 233 236 238
219 241 248 245 226 281 264 261 219 232 188 240 313 314 89 117 171 171 162 169 157 169 173 180 180 180 183 186 188 193 196 200 205 204 206 209 215 221 224 228 232 232 233 231
160 232 248 240 194 205 232 235 240 233 252 270 273 264 141 188 183 208 190 162 170 163 167 176 178 179 186 185 192 198 198 203 204 203 209 213 213 219 226 229 230 232 230 233
248 262 243 271 280 17 216 228 228 240 240 252 212 274 165 221 222 208 203 183 179 180 170 173 178 182 187 187 190 194 200 202 204 205 210 214 215 218 226 229 228 229 228 230
238 251 258 266 280 285 280 283 241 235 244 268 283 216 258 301 289 219 194 197 195 181 181 183 185 183 185 185 189 192 195 197 198 204 211 217 222 226 229 235 235 234 232 231
238 264 279 265 264 266 266 258 260 235 254 253 253 265 273 289 238 206 180 183 190 194 196 190 188 179 183 183 188 187 190 193 193 199 207 209 215 223 228 232 238 239 235 233
260 274 256 260 269 282 266 254 260 258 236 233 231 236 200 211 213 207 198 197 201 204 192 188 188 180 177 176 176 179 181 181 185 194 197 203 203 212 225 231 234 235 237 239
272 258 263 265 269 249 263 279 283 260 245 239 239 238 234 243 258 223 218 223 213 207 179 179 178 161 162 159 160 157 161 170 171 178 188 186 199 211 221 232 240 243 240 240
220 252 263 257 251 259 257 222 249 245 246 246 229 229 228 219 252 244 225 230 233 220 175 170 161 149 147 146 145 146 155 159 155 156 171 158 181 216 230 241 248 254 251 247
248 218 249 247 256 257 264 291 331 280 255 254 219 244 259 190 229 228 119 196 198 170 153 149 146 146 142 142 140 143 146 148 143 143 172 176 208 250 261 262 265 264 255 258
212 229 233 234 248 255 273 54 310 232 300 352 2 335 286 221 344 97 121 134 142 143 146 138 143 139 134 136 142 141 144 128 97 94 338 306 303 293 281 283 273 274 279 273
251 249 236 233 250 246 64 248 248 357 333 343 348 347 334 282 225 162 144 143 144 139 141 136 136 135 135 139 139 136 118 103 91 79 48 33 7 337 330 296 283 275 264 266
246 267 288 274 315 49 32 24 356 333 333 345 332 320 307 270 212 184 158 155 147 144 138 137 134 132 128 125 131 127 123 118 109 77 51 33 14 4 351 322 318 314 290 271
266 329 262 284 264 291 3 43 15 359 344 331 332 316 290 257 201 181 159 151 146 143 142 137 138 138 130 128 119 119 130 128 120 95 77 65 50 13 10 2 339 311 309 310
267 307 299 279 281 301 194 5 349 342 340 339 339 328 304 252 197 183 167 159 152 147 143 145 145 143 139 138 136 134 139 143 126 110 95 85 81 54 34 43 14 345 7 310
257 260 261 263 248 288 293 310 322 328 335 340 341 338 315 266 189 179 166 157 157 154 150 148 152 151 155 161 154 151 152 147 143 149 148 109 119 116 72 24 25 108 117 13